Find Starlink 35861

NORAD ID: 66355 Int'l Des: 2025-254 Owner: SPXS Country: US Constellation: starlink operational
LEOCIRCULAR

現在のビュー

3D地球を読み込み中...

About Starlink 35861

Starlink 35861 (NORAD 66355) is a starlink constellation satellite (v2 mini) launched Nov 6, 2025 by SPXS of US. It operates in LEO, CIRCULAR orbit with a mass of 575.00 kg.

Starlink 35861について

説明を読み込み中...

次回通過

Passes for default location (London). Set your location on the main map for personalized predictions.

高度履歴

Loading altitude history...

軌道要素

1 66355U 25254H 26194.62395060 .00005763 00000-0 20655-3 0 9998
2 66355 53.1598 7.7248 0000892 93.5639 266.5464 15.30200026 38250
Epoch: Jul 13, 2026 • Age: 14 hours

現在のステータス

高度 492.8 km
遠地点 / 近地点 N/A
速度 7.62 km/s
衛星直下点 -49.41°S, 59°W
打ち上げ日 Nov 6, 2025
運用期間 0.6 years
タイプ internet

技術仕様

分類 Payload
質量 575.00 kg
乾燥質量 530.00 kg
総質量 575.00 kg
長さ 0.30 m
直径 4.10 m
スパン 29.00 m
形状 Box + pan
製造者 SPXS
バスタイプ Starlink V2MO
フェーズステータス In Orbit
所有者/国 SPXS/US

Most Searched